星链-32007 (STARLINK-32007 )

导读 | 豆包AI

STARLINK-32007是美国SpaceX公司星链(Starlink)第二代卫星星座的成员,于2024年6月23日发射入轨。它运行在近53度倾角、约475公里高度的近地轨道,属于星链Gen2主力组网卫星。作为第二代星链卫星,它标配激光星间链路,配备增强型相控阵通信天线,单星容量超100Gbps,可提供低延迟高速宽带服务,依靠氪离子推进实现轨道维持与自主避碰,退役后会再入大气层完全烧毁,服务全球宽带互联网覆盖。

Basic Information
目录编号:
60094
目录名称:
STARLINK-32007
国际标识:
2024-117D
轨道中心:
EARTH
卫星名称:
星链-32007
卫星全名:
星链-32007 (STARLINK-32007 )
卫星状态:
在轨 (已飞行677 天)
发射日期:
2024-06-23 UTC
国别 :
美国 (US)
星等 :
--
Orbit Information
数据来源 国际轨道数据 AOE轨道数据
星历时间 2026-04-30T19:27:23+0800
17小时前
查看轨道信息
2026-04-27T08:00:00+0800
4天前
查看轨道信息
半长轴 6853.393km 6853.319km
偏心率 0.0001164 0.0001433
轨道倾角 53.159° 53.159°
近地点辐角 91.735° 72.404°
升交点赤经 156.699° 172.854°
平近点角 268.379° 201.391°
近地点 474.458km 474.199km
远地点 476.054km 476.165km
周期 94.106分钟 94.105分钟
每日圈数 15.301864 15.302112
Detailed Information
固有亮度:
5
最大亮度:
1.5
卫星平台:
Starlink v2.0 mini
覆盖范围:
全球
运营商:
太空探索技术公司
运营商所在国:
美国
制造商(研发单位):
太空探索技术公司
制造商所在国:
美国
使用方式:
暂无
Satellite Introduction
星链(Starlink)计划是由太空探索技术公司(SpaceX)提出的一个巨型低轨卫星互联网星座项目,计划在2019年至2024年间在太空搭建由约1.2万颗卫星组成的“星链”网络,其中1584颗将部署在地球上空550千米处的近地轨道,并从2020年开始工作。该卫星仍在工作。
2D Orbit Map
3D Orbit Map
Orbit Altitude Analysis Chart
Orbit Inclination Analysis Chart
Orbit Comprehensive Analysis Chart
View Comprehensive Chart